Weather in Kuyman

Russia / Lipetsk Oblast     52°51′51″N   39°16′45″E
temp.,
°C
wind,
m/s
gust,
m/s
humid.,
%
clouds,
%
prec.,
mm/h
press.,
hPa
HPBL,
m
14 april, wed
wed1400:00+12se495934 0.0 1023172
03:00+10se337175 0.0 102234
06:00+9ese3565100 0.0 102273
09:00+13ese5850100 0.0 1021293
12:00+18ese683118 0.0 1019958
15:00+19se792340 0.0 10181856
18:00+18se4832100 0.0 1017294
21:00+14ese51245100 0.0 1017290
15 april, thu
thu1500:00+12ese41153100 0.0 1016252
03:00+11ese3459100 0.0 101657
06:00+10ese3664100 0.0 1016119
09:00+13ese345393 0.0 1015280
12:00+17se4541100 0.0 10141083
15:00+18se4638100 0.0 10142524
18:00+16sse4754100 0.1 1014378
21:00+14se2366100 0.8 101556
16 april, fri
fri1600:00+12se2271100 0.0 101529
03:00+12se2371100 0.1 101542
06:00+10s3583100 0.3 1016190
09:00+11ene2687100 1.6 1017216
12:00+14ese586587 0.5 1017820
15:00+17se464989 1.7 10171442
18:00+16ese235799 1.4 1017118
21:00+11sw2485100 9.7 1018109
17 april, sat
sat1700:00+11ne478588 0.2 1018205
03:00+10ene51090100 0.3 1018316
06:00+9ene6119399 0.3 1019358
09:00+12ene8117589 0.3 1019618
12:00+16e91255100 0.0 10181482
15:00+17ese61150100 0.8 10182249
18:00+10ssw3485100 2.1 1020324
21:00+9ese3792100 6.9 1022557
18 april, sun
sun1800:00+9e3594100 3.3 1022384
03:00+8e2494100 4.3 1022283
06:00+8ene3594100 1.6 1023295
09:00+7ene5886100 1.8 1023432
12:00+7ene4987100 2.4 1024656
15:00+10ese4867100 3.0 10241162
18:00+10e1168100 0.0 102438
21:00+7sse3586100 0.0 1025127